User: anonymous   Login
Location: Strawberry
(45.6646°N, 111.9596°W)
Time: 16:43:40
(UTC+00:00)
Language:

STRAND 1 - Orbit

View from above orbital plane
View from above orbital plane
View from above satellite
View from above satellite

Ground track
Ground track

The orbit data is extracted from the following two-line orbital elements,

1 39090U 13009E   22333.79233538  .00000215  00000-0  89617-4 0  9990
2 39090  98.3927 167.5616 0009778 133.9270 226.2725 14.35375595511111
Epoch (UTC): 29 November 2022 19:00:57
Eccentricity: 0.0009778
inclination: 98.3927°
perigee height: 767 km
apogee height: 781 km
right ascension of ascending node: 167.5616°
argument of perigee: 133.9270°
revolutions per day: 14.35375595
mean anomaly at epoch: 226.2725°
orbit number at epoch: 51111

The dashed part of the orbit path shows where the satellite is in the earth's shadow,  

DLR